Language selection

Features

My Weather Profile Weather Topics  | 

Queen Charlotte Sound: Past 24 Hour Conditions

 

Bella Bella Airport

12:00 AM PDT 20 September 2019
Disclaimer

This table is a summary of hourly weather conditions for the past 24 hours.
Please note that these observations might not always be representative of weather conditions over their associated marine area.

Date / Time
(PDT)
Wind(knots) Conditions Visibility(km) Pressure(kPa) Air tempC) Relative humidity(%) Dew pointC)
20 September 2019
0:00 ESE 2 Mist 2 101.8 13 99 13
19 September 2019
23:00 SE 2 Mist 2 101.8 13 99 13
22:00 S 2 Mist 5 101.8 13 99 13
21:00 SSE 3 Cloudy 16 101.8 14 95 13
20:00 S 3 Cloudy 16 101.8 14 96 13
19:00 SSE 4 Mostly Cloudy 16 101.8 14 97 14
18:00 S 4 Cloudy 16 101.8 15 89 13
17:00 S 4 Cloudy 11 101.8 15 92 14
16:00 SW 4 Cloudy 11 101.8 15 84 13
15:00 SSW 4 Cloudy 16 101.9 16 79 12
14:00 SSW 4 Cloudy 16 101.9 16 75 12
13:00 SSW 5 Cloudy 16 101.9 16 77 12
12:00 SSW 4 Cloudy 16 101.9 16 79 12
11:00 SE 4 Cloudy 16 101.9 15 90 13
10:00 SE 3 Light Rain 16 101.9 14 97 13
9:00 S 3 Light Rain 16 101.9 13 99 13
8:00 S 2 Cloudy 16 101.9 13 99 13
7:00 calm Light Rain 16 101.8 13 97 13
6:00 S 3 Light Rain 8 101.8 13 99 13
5:00 SSE 3 Cloudy 11 101.8 13 99 13
4:00 SSE 4 Mist 10 101.8 13 99 13
3:00 SSE 4 Cloudy 13 101.8 12 99 12
2:00 SSE 3 Cloudy 11 101.8 12 99 12
1:00 S 2 Cloudy 15 101.7 11 99 11
0:00 calm Mostly Cloudy 16 101.7 11 98 10

Zoom-in to make a selection

Map of Pacific - North Coast marine weather areas Middle Nomad - 46004 South Nomad - 46036 Dixon Entrance Central - 46145 South Moresby - 46147 Nanakwa Shoal - 46181 North Hecate Strait - 46183 North Nomad - 46184 South Hecate Strait - 46185 West Sea Otter - 46204 West Dixon Entrance - 46205 East Dellwood - 46207 West Moresby - 46208 Sartine Island Cape St.James Kindakun Rocks Langara Island Masset Municipal Airport Rose Spit Sandspit Airport Bella Bella Airport Bella Coola Airport Bonilla Island Cathedral Point Cumshewa Island Grey Islet Holland Rock Lucy Islands Lightstation Prince Rupert Airport
Legend:
buoy Buoy
land station Land Station

Pacific - North Coast Area

Another Region

What we are doing

Date modified: